Tracking 31011 objects as of 11-Jul-2025
HD Live streaming from Space Station
objects crossing your sky now

CZ-6A DEB

Track CZ-6A DEB now!
10-day predictions


NORAD ID: 54562
Int'l Code: 2022-151LN
Perigee: 752.1 km
Apogee: 840.2 km
Inclination: 98.7 °
Period: 100.6 minutes
Semi major axis: 7167 km
RCS: Unknown
Launch date: November 11, 2022
Source: People's Republic of China (PRC)
Launch site: Taiyaun Space Center, China (TSC)

Note: This is SATELLITE DEBRIS
Your satellite tracking list
Your tracking list is empty




NASA's NSSDC Master Catalog

Two Line Element Set (TLE):
1 54562U 22151LN  25192.49579409  .00000650  00000-0  25998-3 0  9996
2 54562  98.7272 215.9016 0061419 241.4674 118.0316 14.30816176138573
Source of the keplerian elements: AFSPC